Hannover, Germany

4:16 PM CET on January 16, 2018 (GMT +0100)
Hannover

Weather History for EDDV - January, 2018

Change the Weather History Date:

Saturday, January 13, 2018

  Actual Average Record
Temperature  
Mean Temperature 34 °F -  
Max Temperature 37 °F 38 °F 53 °F (2007)
Min Temperature 32 °F 28 °F 21 °F (2013)
Degree Days  
Heating Degree Days 30    
Moisture  
Dew Point 32 °F    
Average Humidity 88    
Maximum Humidity 100    
Minimum Humidity 75    
Precipitation  
Precipitation 0.00 in 0.06 in - ()
Sea Level Pressure  
Sea Level Pressure 30.36 in    
Wind  
Wind Speed 9 mph ()    
Max Wind Speed 15 mph    
Max Gust Speed -    
Visibility 4.2 miles    
Events      
Averages and records for this station are not official NWS values.
T = Trace of Precipitation, MM = Missing Value Source: Averaged Metar Reports

Daily Weather History Graph

Daily Weather History Graph

Search for Another Location

Airport or City:

Trip Planner

Search our weather history database for the weather conditions in past years. The results will help you decide how hot, cold, wet, or windy it might be!

Date:

Astronomy

Jan. 13, 2018 Rise Set
Actual Time 8:26 AM CET 4:33 PM CET
Civil Twilight 7:46 AM CET 5:13 PM CET
Nautical Twilight 7:03 AM CET 5:56 PM CET
Astronomical Twilight 6:22 AM CET 6:37 PM CET
Moon 5:05 AM CET (1/13) 2:04 PM CET (1/13)
Length of Visible Light 9h 27m
Length of Day
8h 07m
Waning Crescent, 11% of the Moon is Illuminated
Jan 13
Waning Crescent
Jan 17
New
Jan 24
First Quarter
Jan 31
Full
Feb 7
Last Quarter

Hourly Weather History & Observations

Time (CET) Temp. Windchill Dew Point Humidity Pressure Visibility Wind Dir Wind Speed Gust Speed Precip Events Conditions
12:20 AM 35.6 °F 29.2 °F 35.6 °F 100% 30.39 in 1.6 mi East 8.1 mph - N/A   Mostly Cloudy
12:50 AM 35.6 °F 29.2 °F 35.6 °F 100% 30.39 in - East 8.1 mph - N/A   Mostly Cloudy
1:20 AM 35.6 °F 29.9 °F 35.6 °F 100% 30.39 in - East 6.9 mph - N/A   Mostly Cloudy
1:50 AM 35.6 °F 29.9 °F 35.6 °F 100% 30.39 in - East 6.9 mph - N/A   Mostly Cloudy
2:20 AM 35.6 °F 29.2 °F 35.6 °F 100% 30.39 in 2.5 mi East 8.1 mph - N/A   Mostly Cloudy
2:50 AM 37.4 °F 31.4 °F 35.6 °F 93% 30.39 in 2.8 mi East 8.1 mph - N/A   Mostly Cloudy
3:20 AM 37.4 °F 30.3 °F 35.6 °F 93% 30.36 in 3.7 mi ESE 10.4 mph - N/A   Mostly Cloudy
3:50 AM 37.4 °F 30.8 °F 35.6 °F 93% 30.36 in 3.1 mi ESE 9.2 mph - N/A   Mostly Cloudy
4:20 AM 37.4 °F 30.8 °F 35.6 °F 93% 30.36 in 3.1 mi East 9.2 mph - N/A   Mostly Cloudy
4:50 AM 37.4 °F 30.8 °F 35.6 °F 93% 30.36 in 3.1 mi ESE 9.2 mph - N/A   Mostly Cloudy
5:20 AM 37.4 °F 30.8 °F 35.6 °F 93% 30.36 in 3.1 mi East 9.2 mph - N/A   Mostly Cloudy
5:50 AM 37.4 °F 30.3 °F 35.6 °F 93% 30.36 in 3.1 mi East 10.4 mph - N/A   Mostly Cloudy
6:20 AM 37.4 °F 30.8 °F 35.6 °F 93% 30.36 in 3.1 mi East 9.2 mph - N/A   Mostly Cloudy
6:50 AM 37.4 °F 29.8 °F 35.6 °F 93% 30.36 in 3.1 mi East 11.5 mph - N/A   Mostly Cloudy
7:20 AM 37.4 °F 30.3 °F 33.8 °F 87% 30.36 in 3.1 mi ESE 10.4 mph - N/A   Mostly Cloudy
7:50 AM 37.4 °F 30.8 °F 33.8 °F 87% 30.36 in 3.1 mi ESE 9.2 mph - N/A   Mostly Cloudy
8:20 AM 37.4 °F 30.8 °F 33.8 °F 87% 30.36 in 3.1 mi ESE 9.2 mph - N/A   Mostly Cloudy
8:50 AM 37.4 °F 29.8 °F 33.8 °F 87% 30.36 in 3.1 mi ESE 11.5 mph - N/A   Mostly Cloudy
9:20 AM 37.4 °F 30.3 °F 33.8 °F 87% 30.36 in 3.7 mi ESE 10.4 mph - N/A   Mostly Cloudy
9:50 AM 35.6 °F 26.6 °F 33.8 °F 93% 30.39 in 3.7 mi ESE 13.8 mph - N/A   Mostly Cloudy
10:20 AM 35.6 °F 26.2 °F 33.8 °F 93% 30.39 in 3.7 mi ESE 15.0 mph - N/A   Mostly Cloudy
10:50 AM 35.6 °F 27.1 °F 33.8 °F 93% 30.39 in 3.7 mi ESE 12.7 mph - N/A   Mostly Cloudy
11:20 AM 35.6 °F 27.5 °F 33.8 °F 93% 30.39 in 3.7 mi ESE 11.5 mph - N/A   Mostly Cloudy
11:50 AM 35.6 °F 27.5 °F 33.8 °F 93% 30.39 in 3.1 mi SE 11.5 mph - N/A   Mostly Cloudy
12:20 PM 35.6 °F 27.1 °F 33.8 °F 93% 30.39 in 3.1 mi SE 12.7 mph - N/A   Mostly Cloudy
12:50 PM 35.6 °F 28.6 °F 33.8 °F 93% 30.39 in 3.7 mi ESE 9.2 mph - N/A   Mostly Cloudy
1:20 PM 35.6 °F 28.6 °F 33.8 °F 93% 30.39 in 4.3 mi East 9.2 mph - N/A   Mostly Cloudy
1:50 PM 35.6 °F 28.0 °F 33.8 °F 93% 30.36 in 3.7 mi East 10.4 mph - N/A   Mostly Cloudy
2:20 PM 35.6 °F 27.5 °F 32.0 °F 87% 30.36 in 3.7 mi East 11.5 mph - N/A   Mostly Cloudy
2:50 PM 35.6 °F 27.5 °F 32.0 °F 87% 30.36 in 3.1 mi East 11.5 mph - N/A   Mostly Cloudy
3:20 PM 35.6 °F 28.0 °F 32.0 °F 87% 30.36 in 3.1 mi East 10.4 mph - N/A   Mostly Cloudy
3:50 PM 35.6 °F 28.0 °F 32.0 °F 87% 30.36 in 3.7 mi East 10.4 mph - N/A   Mostly Cloudy
4:20 PM 35.6 °F 27.5 °F 32.0 °F 87% 30.36 in 4.3 mi East 11.5 mph - N/A   Mostly Cloudy
4:50 PM 35.6 °F 28.0 °F 30.2 °F 81% 30.36 in 5.6 mi ESE 10.4 mph - N/A   Mostly Cloudy
5:20 PM 33.8 °F 24.3 °F 30.2 °F 87% 30.36 in 5.6 mi East 13.8 mph - N/A   Mostly Cloudy
5:50 PM 33.8 °F 24.8 °F 28.4 °F 81% 30.36 in 6.2 mi East 12.7 mph - N/A   Mostly Cloudy
6:20 PM 33.8 °F 24.8 °F 28.4 °F 81% 30.36 in 6.2 mi East 12.7 mph - N/A   Mostly Cloudy
6:50 PM 33.8 °F 24.3 °F 26.6 °F 75% 30.36 in 6.2 mi East 13.8 mph - N/A   Mostly Cloudy
7:20 PM 33.8 °F 25.3 °F 26.6 °F 75% 30.33 in 6.2 mi East 11.5 mph - N/A   Mostly Cloudy
7:50 PM 32.0 °F 22.1 °F 26.6 °F 80% 30.33 in 6.2 mi East 13.8 mph - N/A   Mostly Cloudy
8:20 PM 32.0 °F 22.1 °F 24.8 °F 75% 30.33 in 6.2 mi East 13.8 mph - N/A   Mostly Cloudy
8:50 PM 32.0 °F 22.1 °F 24.8 °F 75% 30.36 in 6.2 mi East 13.8 mph - N/A   Mostly Cloudy
9:20 PM 32.0 °F 23.0 °F 24.8 °F 75% 30.36 in 6.2 mi East 11.5 mph - N/A   Mostly Cloudy
9:50 PM 32.0 °F 23.0 °F 24.8 °F 75% 30.36 in 6.2 mi East 11.5 mph - N/A   Mostly Cloudy
10:20 PM 32.0 °F 23.0 °F 24.8 °F 75% 30.33 in 6.2 mi East 11.5 mph - N/A   Mostly Cloudy
10:50 PM 32.0 °F 23.6 °F 24.8 °F 75% 30.33 in 6.2 mi East 10.4 mph - N/A   Mostly Cloudy
11:20 PM 32.0 °F 23.6 °F 24.8 °F 75% 30.33 in 6.2 mi East 10.4 mph - N/A   Overcast
11:50 PM 32.0 °F 23.6 °F 24.8 °F 75% 30.33 in 6.2 mi East 10.4 mph - N/A   Overcast